• In Kazakhstan
  • List of Countries
  • For 7 days
  • Water Temperature
  • Satellite Maps
  • Weather Map
  • News
  • Weather Widgets
  • user-avatar
    Login

    Hourly Weather Rawson

    Today, 16 November, Friday

    Time Temperature Precipitation Wind Pressure Humidity
    00:00 +12°C° 0 mm 7 mps 759 mmHg 35%
    01:00 +13°C° 0 mm 6 mps 759 mmHg 34%
    02:00 +14°C° 0 mm 6 mps 758 mmHg 33%
    03:00 +13°C° 0 mm 5 mps 758 mmHg 34%
    04:00 +12°C° 0 mm 4 mps 758 mmHg 34%
    05:00 +12°C° 0 mm 4 mps 758 mmHg 35%
    06:00 +13°C° 0 mm 3 mps 758 mmHg 31%
    07:00 +16°C° 0 mm 3 mps 758 mmHg 28%
    08:00 +16°C° 0 mm 3 mps 758 mmHg 24%
    09:00 +18°C° 0 mm 3 mps 758 mmHg 22%
    10:00 +19°C° 0 mm 4 mps 757 mmHg 20%
    11:00 +21°C° 0 mm 4 mps 757 mmHg 18%
    12:00 +23°C° 0 mm 5 mps 756 mmHg 16%
    13:00 +26°C° 0 mm 6 mps 755 mmHg 13%
    14:00 +28°C° 0 mm 7 mps 754 mmHg 10%
    15:00 +27°C° 0 mm 8 mps 753 mmHg 13%
    16:00 +27°C° 0 mm 9 mps 752 mmHg 16%
    17:00 +26°C° 0 mm 10 mps 752 mmHg 19%
    18:00 +24°C° 0 mm 9 mps 752 mmHg 23%
    19:00 +23°C° 0 mm 8 mps 751 mmHg 27%
    20:00 +21°C° 0 mm 7 mps 751 mmHg 31%
    21:00 +20°C° 0 mm 6 mps 751 mmHg 32%
    22:00 +19°C° 0 mm 6 mps 752 mmHg 33%
    23:00 +19°C° 0 mm 5 mps 752 mmHg 34%

    Tomorrow, 17 November, Saturday

    Time Temperature Precipitation Wind Pressure Humidity
    00:00 +17°C° 0 mm 6 mps 752 mmHg 35%
    01:00 +17°C° 0 mm 6 mps 752 mmHg 36%
    02:00 +16°C° 0 mm 7 mps 752 mmHg 36%
    03:00 +16°C° 0 mm 8 mps 753 mmHg 36%
    04:00 +15°C° 0 mm 8 mps 753 mmHg 36%
    05:00 +15°C° 0 mm 9 mps 753 mmHg 36%
    06:00 +15°C° 0 mm 9 mps 754 mmHg 35%
    07:00 +16°C° 0 mm 9 mps 754 mmHg 34%
    08:00 +16°C° 0 mm 9 mps 755 mmHg 34%
    09:00 +17°C° 0 mm 9 mps 755 mmHg 31%
    10:00 +18°C° 0 mm 9 mps 755 mmHg 28%
    11:00 +21°C° 0 mm 9 mps 756 mmHg 26%
    12:00 +21°C° 0 mm 8 mps 756 mmHg 26%
    13:00 +21°C° 0 mm 8 mps 756 mmHg 26%
    14:00 +21°C° 0 mm 7 mps 756 mmHg 26%
    15:00 +21°C° 0 mm 6 mps 756 mmHg 27%
    16:00 +21°C° 0 mm 5 mps 756 mmHg 27%
    17:00 +21°C° 0 mm 4 mps 755 mmHg 27%
    18:00 +20°C° 0 mm 4 mps 756 mmHg 30%
    19:00 +19°C° 0 mm 3 mps 756 mmHg 33%
    20:00 +18°C° 0 mm 3 mps 756 mmHg 36%
    21:00 +18°C° 0 mm 3 mps 757 mmHg 38%
    22:00 +17°C° 0 mm 3 mps 757 mmHg 40%
    23:00 +17°C° 0 mm 3 mps 757 mmHg 42%

    Day after tomorrow, 18 November, Sunday

    Time Temperature Precipitation Wind Pressure Humidity
    00:00 +17°C° 0 mm 4 mps 757 mmHg 41%
    01:00 +15°C° 0 mm 5 mps 757 mmHg 39%
    02:00 +15°C° 0 mm 6 mps 757 mmHg 38%
    03:00 +15°C° 0 mm 6 mps 757 mmHg 39%
    04:00 +14°C° 0 mm 6 mps 757 mmHg 41%
    05:00 +13°C° 0 mm 6 mps 757 mmHg 42%
    06:00 +15°C° 0 mm 7 mps 757 mmHg 39%
    07:00 +16°C° 0 mm 8 mps 757 mmHg 36%
    08:00 +18°C° 0 mm 9 mps 758 mmHg 33%
    09:00 +18°C° 0 mm 9 mps 757 mmHg 31%
    10:00 +19°C° 0 mm 9 mps 757 mmHg 30%
    11:00 +19°C° 0 mm 9 mps 757 mmHg 28%
    12:00 +22°C° 0 mm 8 mps 757 mmHg 26%
    13:00 +23°C° 0 mm 8 mps 756 mmHg 24%
    14:00 +24°C° 0 mm 7 mps 756 mmHg 22%
    15:00 +24°C° 0 mm 6 mps 755 mmHg 22%
    16:00 +25°C° 0 mm 5 mps 755 mmHg 23%
    17:00 +25°C° 0 mm 5 mps 755 mmHg 24%
    18:00 +23°C° 0 mm 4 mps 755 mmHg 26%
    19:00 +22°C° 0 mm 4 mps 755 mmHg 28%
    20:00 +22°C° 0 mm 4 mps 755 mmHg 30%
    21:00 +21°C° 0 mm 4 mps 755 mmHg 30%
    22:00 +21°C° 0 mm 4 mps 755 mmHg 30%
    23:00 +21°C° 0 mm 5 mps 755 mmHg 31%

    19 November, Monday

    Time Temperature Precipitation Wind Pressure Humidity
    00:00 +20°C° 0 mm 4 mps 755 mmHg 32%
    01:00 +20°C° 0 mm 4 mps 754 mmHg 34%
    02:00 +19°C° 0 mm 4 mps 754 mmHg 35%
    03:00 +19°C° 0 mm 3 mps 754 mmHg 36%
    04:00 +19°C° 0 mm 3 mps 753 mmHg 37%
    05:00 +19°C° 0 mm 2 mps 753 mmHg 38%
    06:00 +20°C° 0 mm 3 mps 753 mmHg 34%
    07:00 +22°C° 0 mm 4 mps 753 mmHg 31%
    08:00 +23°C° 0 mm 4 mps 753 mmHg 28%
    09:00 +25°C° 0 mm 5 mps 752 mmHg 26%
    10:00 +27°C° 0 mm 6 mps 752 mmHg 25%
    11:00 +28°C° 0 mm 7 mps 752 mmHg 23%
    12:00 +28°C° 0 mm 7 mps 751 mmHg 23%
    13:00 +29°C° 0 mm 8 mps 751 mmHg 22%
    14:00 +29°C° 0 mm 8 mps 750 mmHg 21%
    15:00 +29°C° 0 mm 8 mps 750 mmHg 21%
    16:00 +31°C° 0 mm 8 mps 750 mmHg 21%
    17:00 +31°C° 0 mm 9 mps 750 mmHg 21%
    18:00 +29°C° 0 mm 8 mps 750 mmHg 22%
    19:00 +28°C° 0 mm 8 mps 751 mmHg 24%
    20:00 +27°C° 0 mm 8 mps 751 mmHg 25%
    21:00 +26°C° 0 mm 8 mps 752 mmHg 27%
    22:00 +24°C° 0 mm 8 mps 752 mmHg 29%
    23:00 +23°C° 0 mm 8 mps 753 mmHg 31%

    20 November, Tuesday

    Time Temperature Precipitation Wind Pressure Humidity
    00:00 +22°C° 0 mm 7 mps 753 mmHg 32%
    01:00 +22°C° 0 mm 6 mps 753 mmHg 34%
    02:00 +21°C° 0 mm 5 mps 753 mmHg 36%
    03:00 +20°C° 0 mm 4 mps 754 mmHg 38%
    04:00 +20°C° 0 mm 3 mps 754 mmHg 41%
    05:00 +19°C° 0 mm 2 mps 754 mmHg 44%
    06:00 +20°C° 0 mm 2 mps 754 mmHg 39%
    07:00 +23°C° 0 mm 2 mps 754 mmHg 35%
    08:00 +24°C° 0 mm 2 mps 754 mmHg 31%
    09:00 +26°C° 0 mm 3 mps 754 mmHg 29%
    10:00 +27°C° 0 mm 5 mps 754 mmHg 26%
    11:00 +29°C° 0 mm 6 mps 753 mmHg 24%
    12:00 +29°C° 0 mm 8 mps 752 mmHg 22%
    13:00 +31°C° 0 mm 9 mps 752 mmHg 21%
    14:00 +32°C° 0 mm 10 mps 751 mmHg 20%
    15:00 +31°C° 0 mm 10 mps 750 mmHg 21%
    16:00 +31°C° 0 mm 10 mps 749 mmHg 22%
    17:00 +31°C° 0 mm 10 mps 748 mmHg 23%
    18:00 +29°C° 0 mm 10 mps 748 mmHg 23%
    19:00 +28°C° 0 mm 9 mps 748 mmHg 24%
    20:00 +28°C° 0 mm 9 mps 747 mmHg 24%
    21:00 +28°C° 0 mm 8 mps 747 mmHg 26%
    22:00 +27°C° 0 mm 7 mps 747 mmHg 28%
    23:00 +27°C° 0 mm 6 mps 747 mmHg 29%

    21 November, Wednesday

    Time Temperature Precipitation Wind Pressure Humidity
    00:00 +27°C° 0 mm 7 mps 747 mmHg 31%
    01:00 +26°C° 0 mm 7 mps 746 mmHg 34%
    02:00 +24°C° 0 mm 8 mps 746 mmHg 36%
    03:00 +24°C° 0 mm 8 mps 746 mmHg 36%
    04:00 +24°C° 0 mm 9 mps 745 mmHg 36%
    05:00 +24°C° 0 mm 9 mps 745 mmHg 37%
    06:00 +26°C° 0 mm 10 mps 745 mmHg 35%
    07:00 +26°C° 0 mm 11 mps 745 mmHg 34%
    08:00 +27°C° 0 mm 11 mps 745 mmHg 33%
    09:00 +28°C° 0 mm 12 mps 745 mmHg 32%
    10:00 +28°C° 0 mm 12 mps 744 mmHg 31%
    11:00 +29°C° 0 mm 13 mps 744 mmHg 30%
    12:00 +28°C° 0 mm 12 mps 745 mmHg 30%
    13:00 +27°C° 0 mm 12 mps 746 mmHg 29%
    14:00 +26°C° 0 mm 12 mps 747 mmHg 29%
    15:00 +23°C° 0.2 mm 11 mps 748 mmHg 26%
    16:00 +22°C° 0.2 mm 10 mps 749 mmHg 23%
    17:00 +21°C° 0.2 mm 10 mps 750 mmHg 20%
    18:00 +19°C° 0 mm 11 mps 751 mmHg 19%
    19:00 +18°C° 0 mm 12 mps 753 mmHg 18%
    20:00 +17°C° 0 mm 13 mps 754 mmHg 17%
    21:00 +15°C° 0 mm 13 mps 755 mmHg 20%
    22:00 +14°C° 0 mm 13 mps 756 mmHg 22%
    23:00 +13°C° 0 mm 13 mps 757 mmHg 24%
    Show more